Location: Brede
(50.9167°N, 0.6000°E)
Time: 22:14:40
(UTC+00:00)

Explorer 7 - Visible Passes

Search period start: 29 July 2021 00:00
Search period end: 08 August 2021 00:00
Orbit: 484 x 676 km, 50.3° (Epoch: 28 July)

Date Brightness Start Highest point End Pass type
(mag) Time Alt. Az. Time Alt. Az. Time Alt. Az.
02 Aug 9.2 03:43:05 10° SSE 03:44:25 12° SE 03:45:46 10° ESE visible
03 Aug 8.8 03:45:56 10° S 03:48:27 17° SE 03:51:01 10° E visible
06 Aug 8.9 02:20:23 12° SSE 02:21:10 12° SE 02:22:49 10° ESE visible
07 Aug 8.4 02:24:26 17° SSE 02:25:13 18° SE 02:27:53 10° E visible
